| time (UTC) | temp F | wind direction | speed MPH | gust MPH | rain 1hr in | rain 24hr in | rain mn in | humidity % | barometer mb |
| 20260506172502 | 58 | 187 | 3.0 | 5.0 | 0.07 | 0.03 | 0.03 | 98 | 1020.5 |
| 20260506171958 | 58 | 150 | 0.0 | 1.0 | 0.07 | 0.03 | 0.03 | 98 | 1020.9 |
| 20260506171456 | 58 | 160 | 0.0 | 1.0 | 0.05 | 0.02 | 0.02 | 97 | 1020.9 |
| 20260506170953 | 58 | 188 | 6.0 | 7.0 | 0.05 | 0.02 | 0.02 | 96 | 1020.9 |
| 20260506170449 | 58 | 205 | 4.0 | 5.0 | 0.00 | 0.01 | 0.01 | 96 | 1021.2 |
| 20260506165948 | 58 | 180 | 3.0 | 3.0 | 0.07 | 0.01 | 0.01 | 95 | 1020.9 |
| 20260506165446 | 59 | 186 | 3.0 | 3.0 | 0.07 | 0.01 | 0.01 | 94 | 1020.9 |
| 20260506164942 | 59 | 186 | 3.0 | 6.0 | 0.00 | 0.00 | 0.00 | 93 | 1021.2 |
| 20260506164439 | 59 | 261 | 5.0 | 9.0 | 0.00 | 0.00 | 0.00 | 92 | 1021.6 |
| 20260506163937 | 60 | 149 | 2.0 | 3.0 | 0.00 | 0.00 | 0.00 | 91 | 1021.2 |
| 20260506163432 | 60 | 149 | 5.0 | 7.0 | 0.00 | 0.00 | 0.00 | 89 | 1020.9 |
| 20260506162927 | 60 | 163 | 5.0 | 8.0 | 0.00 | 0.00 | 0.00 | 88 | 1021.2 |
| 20260506162425 | 61 | 194 | 8.0 | 11.0 | 0.00 | 0.00 | 0.00 | 87 | 1021.2 |
| 20260506161921 | 61 | 186 | 6.0 | 8.0 | 0.00 | 0.00 | 0.00 | 87 | 1021.6 |
| 20260506161420 | 61 | 175 | 10.0 | 13.0 | 0.00 | 0.00 | 0.00 | 86 | 1021.2 |
| 20260506160911 | 62 | 202 | 5.0 | 6.0 | 0.00 | 0.00 | 0.00 | 85 | 1021.2 |
| 20260506160409 | 62 | 159 | 2.0 | 2.0 | 0.00 | 0.00 | 0.00 | 85 | 1021.6 |
| 20260506155906 | 62 | 212 | 6.0 | 8.0 | 0.00 | 0.00 | 0.00 | 85 | 1021.6 |
| 20260506155403 | 62 | 170 | 7.0 | 8.0 | 0.00 | 0.00 | 0.00 | 85 | 1021.6 |
| 20260506153525 | 62 | 187 | 5.0 | 6.0 | 0.00 | 0.00 | 0.00 | 86 | 1021.9 |
| 20260506153023 | 62 | 180 | 6.0 | 7.0 | 0.00 | 0.00 | 0.00 | 85 | 1021.6 |
| 20260506152520 | 62 | 210 | 5.0 | 7.0 | 0.00 | 0.00 | 0.00 | 85 | 1021.6 |
| 20260506152018 | 62 | 190 | 3.0 | 5.0 | 0.00 | 0.00 | 0.00 | 86 | 1021.6 |
| 20260506151515 | 62 | 188 | 6.0 | 8.0 | 0.00 | 0.00 | 0.00 | 86 | 1021.6 |
| 20260506151012 | 62 | 84 | 3.0 | 5.0 | 0.00 | 0.00 | 0.00 | 86 | 1021.6 |
| 20260506150508 | 61 | 196 | 5.0 | 8.0 | 0.00 | 0.00 | 0.00 | 86 | 1021.6 |
| 20260506150006 | 62 | 217 | 6.0 | 8.0 | 0.00 | 0.00 | 0.00 | 85 | 1021.6 |
| 20260506145502 | 62 | 199 | 7.0 | 9.0 | 0.00 | 0.00 | 0.00 | 85 | 1021.2 |
| 20260506145000 | 62 | 169 | 7.0 | 9.0 | 0.00 | 0.00 | 0.00 | 85 | 1021.6 |
| 20260506144456 | 62 | 234 | 6.0 | 8.0 | 0.00 | 0.00 | 0.00 | 85 | 1021.6 |
| 20260506143954 | 62 | 216 | 9.0 | 11.0 | 0.00 | 0.00 | 0.00 | 84 | 1021.6 |
| 20260506143451 | 63 | 163 | 6.0 | 9.0 | 0.00 | 0.00 | 0.00 | 83 | 1021.6 |
| 20260506142950 | 63 | 172 | 0.0 | 0.0 | 0.00 | 0.00 | 0.00 | 83 | 1021.6 |
| 20260506142447 | 64 | 174 | 4.0 | 6.0 | 0.00 | 0.00 | 0.00 | 82 | 1021.6 |
| 20260506141944 | 64 | 175 | 8.0 | 10.0 | 0.00 | 0.00 | 0.00 | 82 | 1021.9 |
| 20260506141442 | 64 | 97 | 2.0 | 5.0 | 0.00 | 0.00 | 0.00 | 81 | 1021.6 |
| 20260506140941 | 65 | 170 | 3.0 | 6.0 | 0.00 | 0.00 | 0.00 | 82 | 1021.6 |
| 20260506140437 | 64 | 183 | 10.0 | 11.0 | 0.00 | 0.00 | 0.00 | 82 | 1021.6 |
| 20260506135934 | 63 | 212 | 3.0 | 10.0 | 0.00 | 0.00 | 0.00 | 83 | 1021.9 |
| 20260506135432 | 63 | 169 | 1.0 | 2.0 | 0.00 | 0.00 | 0.00 | 84 | 1021.9 |
| 20260506134927 | 63 | 154 | 0.0 | 0.0 | 0.00 | 0.00 | 0.00 | 84 | 1021.6 |
| 20260506134424 | 62 | 191 | 0.0 | 0.0 | 0.00 | 0.00 | 0.00 | 84 | 1021.6 |
| 20260506133921 | 62 | 229 | 3.0 | 8.0 | 0.00 | 0.00 | 0.00 | 85 | 1021.6 |
| 20260506133418 | 62 | 199 | 7.0 | 8.0 | 0.00 | 0.00 | 0.00 | 85 | 1021.6 |
| 20260506132914 | 62 | 137 | 0.0 | 0.0 | 0.00 | 0.00 | 0.00 | 85 | 1021.6 |
| 20260506132411 | 61 | 181 | 0.0 | 0.0 | 0.00 | 0.00 | 0.00 | 87 | 1021.6 |
| 20260506131909 | 61 | 172 | 1.0 | 5.0 | 0.00 | 0.00 | 0.00 | 87 | 1021.6 |
| 20260506131405 | 61 | 203 | 4.0 | 7.0 | 0.00 | 0.00 | 0.00 | 87 | 1021.2 |
| 20260506130902 | 61 | 189 | 1.0 | 3.0 | 0.00 | 0.00 | 0.00 | 86 | 1021.6 |
| 20260506130358 | 61 | 174 | 0.0 | 0.0 | 0.00 | 0.00 | 0.00 | 87 | 1021.6 |
| 20260506125857 | 62 | 214 | 0.0 | 0.0 | 0.00 | 0.00 | 0.00 | 87 | 1021.6 |
| 20260506125355 | 62 | 190 | 0.0 | 0.0 | 0.00 | 0.00 | 0.00 | 87 | 1021.6 |
| 20260506124853 | 62 | 175 | 0.0 | 0.0 | 0.00 | 0.00 | 0.00 | 87 | 1021.6 |
| 20260506124349 | 62 | 195 | 0.0 | 0.0 | 0.00 | 0.00 | 0.00 | 87 | 1021.6 |
| 20260506123848 | 62 | 183 | 0.0 | 1.0 | 0.00 | 0.00 | 0.00 | 86 | 1021.9 |
| 20260506123346 | 62 | 150 | 0.0 | 0.0 | 0.00 | 0.00 | 0.00 | 88 | 1022.2 |
| 20260506122843 | 61 | 200 | 0.0 | 0.0 | 0.00 | 0.00 | 0.00 | 88 | 1022.6 |
| 20260506122339 | 60 | 203 | 0.0 | 0.0 | 0.00 | 0.00 | 0.00 | 89 | 1022.2 |
| 20260506121838 | 60 | 196 | 8.0 | 10.0 | 0.00 | 0.00 | 0.00 | 89 | 1022.2 |
| 20260506121334 | 60 | 198 | 0.0 | 0.0 | 0.00 | 0.00 | 0.00 | 90 | 1022.6 |
| 20260506120831 | 60 | 199 | 0.0 | 0.0 | 0.00 | 0.00 | 0.00 | 90 | 1022.2 |
| 20260506120329 | 59 | 255 | 0.0 | 0.0 | 0.00 | 0.00 | 0.00 | 91 | 1022.2 |
| 20260506115826 | 59 | 185 | 0.0 | 0.0 | 0.00 | 0.00 | 0.00 | 92 | 1022.2 |
| 20260506115324 | 58 | 151 | 0.0 | 0.0 | 0.00 | 0.00 | 0.00 | 93 | 1021.9 |
| 20260506114822 | 58 | 185 | 1.0 | 2.0 | 0.00 | 0.00 | 0.00 | 93 | 1022.2 |
| 20260506114320 | 58 | 181 | 0.0 | 0.0 | 0.00 | 0.00 | 0.00 | 93 | 1022.2 |
| 20260506113818 | 58 | 199 | 0.0 | 0.0 | 0.00 | 0.00 | 0.00 | 93 | 1022.2 |
| 20260506113315 | 58 | 170 | 3.0 | 5.0 | 0.00 | 0.00 | 0.00 | 94 | 1021.9 |
| 20260506112812 | 57 | 212 | 0.0 | 0.0 | 0.00 | 0.00 | 0.00 | 95 | 1022.2 |
| 20260506112309 | 57 | 170 | 4.0 | 5.0 | 0.00 | 0.00 | 0.00 | 95 | 1022.2 |
| 20260506111806 | 56 | 180 | 2.0 | 3.0 | 0.00 | 0.00 | 0.00 | 96 | 1022.2 |
| 20260506111304 | 56 | 166 | 7.0 | 7.0 | 0.00 | 0.00 | 0.00 | 96 | 1022.6 |
| 20260506110802 | 56 | 208 | 2.0 | 3.0 | 0.00 | 0.00 | 0.00 | 96 | 1022.2 |
| 20260506110258 | 56 | 171 | 1.0 | 2.0 | 0.00 | 0.00 | 0.00 | 96 | 1022.2 |
| 20260506105755 | 56 | 187 | 3.0 | 3.0 | 0.00 | 0.00 | 0.00 | 96 | 1022.2 |
| 20260506105252 | 56 | 170 | 1.0 | 1.0 | 0.00 | 0.00 | 0.00 | 97 | 1021.9 |
| 20260506104750 | 55 | 192 | 5.0 | 6.0 | 0.00 | 0.00 | 0.00 | 97 | 1022.2 |
| 20260506104247 | 55 | 195 | 4.0 | 5.0 | 0.00 | 0.00 | 0.00 | 97 | 1021.9 |
| 20260506103744 | 55 | 205 | 2.0 | 2.0 | 0.00 | 0.00 | 0.00 | 97 | 1022.2 |
| 20260506103242 | 55 | 193 | 3.0 | 5.0 | 0.00 | 0.00 | 0.00 | 97 | 1022.2 |
| 20260506102739 | 55 | 195 | 4.0 | 5.0 | 0.00 | 0.00 | 0.00 | 97 | 1021.9 |
| 20260506102237 | 55 | 192 | 3.0 | 3.0 | 0.00 | 0.00 | 0.00 | 97 | 1021.9 |
| 20260506101734 | 55 | 192 | 1.0 | 3.0 | 0.00 | 0.00 | 0.00 | 97 | 1021.9 |
| 20260506101230 | 55 | 179 | 1.0 | 1.0 | 0.00 | 0.00 | 0.00 | 97 | 1021.9 |
| 20260506100728 | 55 | 188 | 3.0 | 3.0 | 0.00 | 0.00 | 0.00 | 97 | 1021.9 |
| 20260506100226 | 55 | 191 | 2.0 | 2.0 | 0.00 | 0.00 | 0.00 | 97 | 1022.2 |
| 20260506095724 | 55 | 208 | 6.0 | 7.0 | 0.00 | 0.00 | 0.00 | 97 | 1022.2 |
| 20260506095221 | 55 | 204 | 2.0 | 2.0 | 0.00 | 0.00 | 0.00 | 97 | 1021.9 |
| 20260506094718 | 55 | 195 | 4.0 | 7.0 | 0.00 | 0.00 | 0.00 | 97 | 1022.2 |
| 20260506094216 | 55 | 169 | 1.0 | 2.0 | 0.00 | 0.00 | 0.00 | 97 | 1021.9 |
| 20260506093715 | 55 | 206 | 1.0 | 2.0 | 0.00 | 0.00 | 0.00 | 97 | 1021.9 |
| 20260506093211 | 55 | 256 | 1.0 | 2.0 | 0.00 | 0.00 | 0.00 | 97 | 1021.9 |
| 20260506092709 | 55 | 208 | 3.0 | 3.0 | 0.00 | 0.00 | 0.00 | 96 | 1022.2 |
| 20260506092206 | 55 | 223 | 3.0 | 3.0 | 0.00 | 0.00 | 0.00 | 96 | 1021.9 |
| 20260506091704 | 55 | 209 | 4.0 | 5.0 | 0.00 | 0.00 | 0.00 | 97 | 1021.9 |
| 20260506091201 | 55 | 149 | 1.0 | 1.0 | 0.00 | 0.00 | 0.00 | 96 | 1021.9 |
| 20260506090659 | 55 | 53 | 1.0 | 1.0 | 0.00 | 0.00 | 0.00 | 96 | 1022.2 |
| 20260506090155 | 55 | 193 | 0.0 | 1.0 | 0.00 | 0.00 | 0.00 | 96 | 1022.2 |
| 20260506085652 | 55 | 185 | 1.0 | 2.0 | 0.00 | 0.00 | 0.00 | 96 | 1022.2 |
| 20260506085148 | 55 | 164 | 3.0 | 3.0 | 0.00 | 0.00 | 0.00 | 96 | 1022.6 |
| 20260506084645 | 55 | 165 | 3.0 | 3.0 | 0.00 | 0.00 | 0.00 | 96 | 1022.2 |
| 20260506084142 | 55 | 207 | 2.0 | 3.0 | 0.00 | 0.00 | 0.00 | 95 | 1022.2 |
| 20260506083639 | 55 | 181 | 1.0 | 2.0 | 0.00 | 0.00 | 0.00 | 95 | 1022.2 |
| 20260506083136 | 55 | 169 | 3.0 | 5.0 | 0.00 | 0.00 | 0.00 | 95 | 1022.2 |
| 20260506082633 | 55 | 153 | 1.0 | 1.0 | 0.00 | 0.00 | 0.00 | 95 | 1022.2 |
| 20260506082128 | 55 | 181 | 1.0 | 1.0 | 0.00 | 0.00 | 0.00 | 95 | 1022.2 |
| 20260506081627 | 55 | 185 | 2.0 | 3.0 | 0.00 | 0.00 | 0.00 | 95 | 1022.2 |
| 20260506081124 | 55 | 207 | 2.0 | 3.0 | 0.00 | 0.00 | 0.00 | 95 | 1021.9 |
| 20260506080622 | 55 | 177 | 4.0 | 6.0 | 0.00 | 0.00 | 0.00 | 95 | 1022.2 |
| 20260506080118 | 56 | 142 | 2.0 | 2.0 | 0.00 | 0.00 | 0.00 | 95 | 1022.6 |
| 20260506073102 | 56 | 159 | 4.0 | 5.0 | 0.00 | 0.00 | 0.00 | 93 | 1022.2 |
| 20260506072558 | 56 | 161 | 3.0 | 3.0 | 0.00 | 0.00 | 0.00 | 93 | 1022.2 |
| 20260506072057 | 56 | 130 | 1.0 | 2.0 | 0.00 | 0.00 | 0.00 | 93 | 1022.6 |
| 20260506071554 | 57 | 161 | 3.0 | 3.0 | 0.00 | 0.00 | 0.00 | 93 | 1022.6 |
| 20260506071051 | 57 | 180 | 2.0 | 2.0 | 0.00 | 0.00 | 0.00 | 92 | 1022.6 |
| 20260506070548 | 57 | 163 | 3.0 | 3.0 | 0.00 | 0.00 | 0.00 | 92 | 1022.6 |
| 20260506062023 | 57 | 140 | 1.0 | 2.0 | 0.00 | 0.00 | 0.00 | 91 | 1022.2 |
| 20260506061518 | 57 | 138 | 1.0 | 3.0 | 0.00 | 0.00 | 0.00 | 91 | 1022.2 |
| 20260506061016 | 57 | 193 | 3.0 | 5.0 | 0.00 | 0.00 | 0.00 | 90 | 1022.2 |
| 20260506060515 | 57 | 194 | 8.0 | 10.0 | 0.00 | 0.00 | 0.00 | 90 | 1022.2 |
| 20260506050943 | 58 | 176 | 3.0 | 3.0 | 0.00 | 0.00 | 0.00 | 88 | 1022.6 |
| 20260506050441 | 59 | 185 | 3.0 | 3.0 | 0.00 | 0.00 | 0.00 | 88 | 1023.0 |
| 20260506044931 | 59 | 154 | 1.0 | 1.0 | 0.00 | 0.00 | 0.00 | 86 | 1022.6 |
| 20260506044430 | 60 | 229 | 0.0 | 0.0 | 0.00 | 0.00 | 0.00 | 86 | 1022.2 |
| 20260506043926 | 60 | 189 | 0.0 | 0.0 | 0.00 | 0.00 | 0.00 | 86 | 1022.6 |
| 20260506043423 | 60 | 188 | 0.0 | 0.0 | 0.00 | 0.00 | 0.00 | 85 | 1023.0 |
| 20260506042921 | 60 | 191 | 1.0 | 3.0 | 0.00 | 0.00 | 0.00 | 85 | 1022.6 |
| 20260506042420 | 60 | 165 | 0.0 | 0.0 | 0.00 | 0.00 | 0.00 | 84 | 1022.2 |
| 20260506041918 | 60 | 182 | 0.0 | 0.0 | 0.00 | 0.00 | 0.00 | 84 | 1023.0 |
| 20260506041415 | 60 | 193 | 0.0 | 1.0 | 0.00 | 0.00 | 0.00 | 84 | 1023.0 |
| 20260506040912 | 61 | 192 | 0.0 | 0.0 | 0.00 | 0.00 | 0.00 | 83 | 1022.6 |
| 20260506040410 | 61 | 178 | 0.0 | 0.0 | 0.00 | 0.00 | 0.00 | 82 | 1022.6 |
| 20260506035906 | 61 | 178 | 2.0 | 6.0 | 0.00 | 0.00 | 0.00 | 82 | 1022.6 |
| 20260506035404 | 61 | 183 | 2.0 | 6.0 | 0.00 | 0.00 | 0.00 | 82 | 1022.6 |
| 20260506034900 | 61 | 174 | 0.0 | 1.0 | 0.00 | 0.00 | 0.00 | 81 | 1022.6 |
| 20260506034358 | 61 | 172 | 3.0 | 5.0 | 0.00 | 0.00 | 0.00 | 81 | 1022.6 |
| 20260506033854 | 61 | 202 | 0.0 | 2.0 | 0.00 | 0.00 | 0.00 | 81 | 1022.6 |
| 20260506033351 | 62 | 167 | 1.0 | 5.0 | 0.00 | 0.00 | 0.00 | 80 | 1023.0 |
| 20260506032848 | 62 | 211 | 3.0 | 5.0 | 0.00 | 0.00 | 0.00 | 80 | 1023.0 |
| 20260506032345 | 62 | 188 | 1.0 | 5.0 | 0.00 | 0.00 | 0.00 | 79 | 1022.6 |
| 20260506031842 | 62 | 212 | 2.0 | 9.0 | 0.00 | 0.00 | 0.00 | 79 | 1023.0 |
| 20260506031339 | 62 | 218 | 1.0 | 6.0 | 0.00 | 0.00 | 0.00 | 78 | 1022.6 |
| 20260506030837 | 62 | 183 | 0.0 | 0.0 | 0.00 | 0.00 | 0.00 | 77 | 1023.0 |
| 20260506030335 | 62 | 199 | 4.0 | 9.0 | 0.00 | 0.00 | 0.00 | 77 | 1022.6 |
| 20260506025831 | 62 | 166 | 0.0 | 0.0 | 0.00 | 0.00 | 0.00 | 76 | 1022.6 |
| 20260506025327 | 62 | 190 | 1.0 | 9.0 | 0.00 | 0.00 | 0.00 | 76 | 1022.6 |
| 20260506024825 | 62 | 190 | 5.0 | 7.0 | 0.00 | 0.00 | 0.00 | 75 | 1022.6 |
| 20260506024322 | 62 | 191 | 0.0 | 0.0 | 0.00 | 0.00 | 0.00 | 76 | 1022.6 |
| 20260506023818 | 63 | 214 | 12.0 | 18.0 | 0.00 | 0.00 | 0.00 | 75 | 1022.6 |
| 20260506023315 | 63 | 185 | 3.0 | 8.0 | 0.00 | 0.00 | 0.00 | 75 | 1022.6 |
| 20260506022811 | 62 | 182 | 1.0 | 2.0 | 0.00 | 0.00 | 0.00 | 75 | 1022.6 |
| 20260506022309 | 62 | 156 | 0.0 | 0.0 | 0.00 | 0.00 | 0.00 | 75 | 1022.6 |
| 20260506021807 | 62 | 169 | 3.0 | 6.0 | 0.00 | 0.00 | 0.00 | 75 | 1022.6 |
| 20260506021304 | 62 | 192 | 0.0 | 0.0 | 0.00 | 0.00 | 0.00 | 75 | 1022.6 |
| 20260506020800 | 62 | 155 | 0.0 | 0.0 | 0.00 | 0.00 | 0.00 | 75 | 1022.6 |
| 20260506020258 | 62 | 137 | 0.0 | 1.0 | 0.00 | 0.00 | 0.00 | 75 | 1022.6 |
| 20260506015756 | 62 | 180 | 3.0 | 5.0 | 0.00 | 0.00 | 0.00 | 75 | 1022.2 |
| 20260506015253 | 62 | 165 | 0.0 | 0.0 | 0.00 | 0.00 | 0.00 | 75 | 1022.6 |
| 20260506014750 | 62 | 193 | 0.0 | 0.0 | 0.00 | 0.00 | 0.00 | 75 | 1022.6 |
| 20260506014246 | 62 | 179 | 3.0 | 3.0 | 0.00 | 0.00 | 0.00 | 75 | 1022.6 |
| 20260506013743 | 62 | 161 | 2.0 | 5.0 | 0.00 | 0.00 | 0.00 | 75 | 1022.6 |
| 20260506013241 | 62 | 322 | 0.0 | 1.0 | 0.00 | 0.00 | 0.00 | 74 | 1022.2 |
| 20260506012737 | 62 | 205 | 0.0 | 1.0 | 0.00 | 0.00 | 0.00 | 74 | 1022.2 |
| 20260506012234 | 62 | 191 | 0.0 | 0.0 | 0.00 | 0.00 | 0.00 | 75 | 1022.2 |
| 20260506011731 | 62 | 199 | 6.0 | 8.0 | 0.00 | 0.00 | 0.00 | 75 | 1022.2 |
| 20260506011227 | 62 | 161 | 0.0 | 0.0 | 0.00 | 0.00 | 0.00 | 74 | 1021.9 |
| 20260506010726 | 62 | 207 | 0.0 | 0.0 | 0.00 | 0.00 | 0.00 | 74 | 1021.9 |
| 20260506010223 | 63 | 198 | 0.0 | 0.0 | 0.00 | 0.00 | 0.00 | 74 | 1021.9 |
| 20260506005720 | 63 | 203 | 1.0 | 8.0 | 0.00 | 0.00 | 0.00 | 73 | 1021.9 |
| 20260506005217 | 63 | 190 | 0.0 | 2.0 | 0.00 | 0.00 | 0.00 | 73 | 1021.6 |
| 20260506004713 | 63 | 186 | 0.0 | 1.0 | 0.00 | 0.00 | 0.00 | 72 | 1021.9 |
| 20260506004211 | 63 | 218 | 0.0 | 0.0 | 0.00 | 0.00 | 0.00 | 71 | 1021.6 |
| 20260506003706 | 64 | 229 | 9.0 | 11.0 | 0.00 | 0.00 | 0.00 | 71 | 1021.2 |
| 20260506003203 | 64 | 195 | 0.0 | 2.0 | 0.00 | 0.00 | 0.00 | 71 | 1021.6 |
| 20260506002659 | 64 | 188 | 0.0 | 0.0 | 0.00 | 0.00 | 0.00 | 71 | 1021.6 |
| 20260506002155 | 64 | 174 | 0.0 | 0.0 | 0.00 | 0.00 | 0.00 | 71 | 1021.2 |
| 20260506001651 | 64 | 219 | 3.0 | 7.0 | 0.00 | 0.00 | 0.00 | 70 | 1021.2 |
| 20260506001148 | 64 | 200 | 0.0 | 0.0 | 0.00 | 0.00 | 0.00 | 71 | 1020.9 |
| 20260506000645 | 64 | 207 | 5.0 | 9.0 | 0.00 | 0.00 | 0.00 | 69 | 1021.2 |
| 20260506000143 | 64 | 195 | 2.0 | 6.0 | 0.00 | 0.00 | 0.00 | 69 | 1021.2 |
| 20260505235641 | 64 | 197 | 12.0 | 17.0 | 0.00 | 0.00 | 0.00 | 69 | 1020.9 |
| 20260505235138 | 65 | 184 | 5.0 | 10.0 | 0.00 | 0.00 | 0.00 | 69 | 1020.9 |
| 20260505234635 | 64 | 195 | 0.0 | 0.0 | 0.00 | 0.00 | 0.00 | 70 | 1020.9 |
| 20260505234131 | 64 | 193 | 1.0 | 6.0 | 0.00 | 0.00 | 0.00 | 71 | 1020.9 |
| 20260505233629 | 64 | 195 | 0.0 | 0.0 | 0.00 | 0.00 | 0.00 | 71 | 1020.9 |
| 20260505233126 | 65 | 198 | 5.0 | 11.0 | 0.00 | 0.00 | 0.00 | 71 | 1020.5 |
| 20260505232623 | 65 | 187 | 8.0 | 10.0 | 0.00 | 0.00 | 0.00 | 69 | 1020.9 |
| 20260505232121 | 65 | 156 | 0.0 | 0.0 | 0.00 | 0.00 | 0.00 | 70 | 1020.9 |
| 20260505231618 | 66 | 204 | 0.0 | 0.0 | 0.00 | 0.00 | 0.00 | 69 | 1020.5 |
| 20260505231116 | 66 | 179 | 3.0 | 8.0 | 0.00 | 0.00 | 0.00 | 69 | 1020.2 |
| 20260505230614 | 66 | 205 | 13.0 | 16.0 | 0.00 | 0.00 | 0.00 | 68 | 1020.5 |
| 20260505230110 | 66 | 201 | 0.0 | 0.0 | 0.00 | 0.00 | 0.00 | 70 | 1020.5 |
| 20260505225607 | 66 | 206 | 2.0 | 6.0 | 0.00 | 0.00 | 0.00 | 69 | 1020.5 |
| 20260505225103 | 66 | 193 | 0.0 | 0.0 | 0.00 | 0.00 | 0.00 | 70 | 1020.2 |
| 20260505224600 | 66 | 162 | 0.0 | 0.0 | 0.00 | 0.00 | 0.00 | 70 | 1020.2 |
| 20260505224057 | 66 | 200 | 0.0 | 0.0 | 0.00 | 0.00 | 0.00 | 70 | 1020.2 |
| 20260505223554 | 66 | 166 | 0.0 | 0.0 | 0.00 | 0.00 | 0.00 | 69 | 1020.5 |
| 20260505223050 | 66 | 200 | 2.0 | 5.0 | 0.00 | 0.00 | 0.00 | 69 | 1020.5 |
| 20260505222547 | 67 | 158 | 0.0 | 0.0 | 0.00 | 0.00 | 0.00 | 69 | 1020.5 |
| 20260505222043 | 67 | 192 | 3.0 | 8.0 | 0.00 | 0.00 | 0.00 | 68 | 1020.5 |
| 20260505221540 | 67 | 195 | 5.0 | 8.0 | 0.00 | 0.00 | 0.00 | 68 | 1020.2 |
| 20260505221036 | 67 | 186 | 0.0 | 0.0 | 0.00 | 0.00 | 0.00 | 68 | 1020.5 |
| 20260505220534 | 67 | 207 | 8.0 | 8.0 | 0.00 | 0.00 | 0.00 | 68 | 1020.5 |
| 20260505220032 | 67 | 195 | 0.0 | 1.0 | 0.00 | 0.00 | 0.00 | 68 | 1020.5 |
| 20260505215530 | 68 | 190 | 2.0 | 6.0 | 0.00 | 0.00 | 0.00 | 68 | 1020.5 |
| 20260505215027 | 68 | 170 | 1.0 | 2.0 | 0.00 | 0.00 | 0.00 | 67 | 1020.2 |
| 20260505214525 | 69 | 154 | 1.0 | 5.0 | 0.00 | 0.00 | 0.00 | 66 | 1020.5 |
| 20260505214022 | 69 | 222 | 3.0 | 5.0 | 0.00 | 0.00 | 0.00 | 66 | 1020.2 |
| 20260505213519 | 69 | 214 | 2.0 | 6.0 | 0.00 | 0.00 | 0.00 | 67 | 1020.2 |
| 20260505213015 | 69 | 153 | 1.0 | 2.0 | 0.00 | 0.00 | 0.00 | 67 | 1019.9 |
| 20260505212512 | 69 | 141 | 12.0 | 14.0 | 0.00 | 0.00 | 0.00 | 65 | 1020.2 |
| 20260505212009 | 69 | 184 | 7.0 | 13.0 | 0.00 | 0.00 | 0.00 | 65 | 1019.9 |
| 20260505211507 | 69 | 188 | 5.0 | 8.0 | 0.00 | 0.00 | 0.00 | 67 | 1019.9 |
| 20260505211003 | 68 | 185 | 2.0 | 7.0 | 0.00 | 0.00 | 0.00 | 67 | 1020.2 |
| 20260505210500 | 69 | 188 | 5.0 | 10.0 | 0.00 | 0.00 | 0.00 | 66 | 1020.2 |
| 20260505205956 | 70 | 163 | 0.0 | 0.0 | 0.00 | 0.00 | 0.00 | 65 | 1020.2 |
| 20260505205455 | 69 | 193 | 0.0 | 0.0 | 0.00 | 0.00 | 0.00 | 66 | 1020.5 |
| 20260505204951 | 70 | 178 | 7.0 | 9.0 | 0.00 | 0.00 | 0.00 | 65 | 1020.2 |
| 20260505204449 | 69 | 197 | 4.0 | 7.0 | 0.00 | 0.00 | 0.00 | 66 | 1019.9 |
| 20260505203946 | 70 | 171 | 4.0 | 10.0 | 0.00 | 0.00 | 0.00 | 64 | 1020.2 |
| 20260505203443 | 70 | 221 | 3.0 | 5.0 | 0.00 | 0.00 | 0.00 | 65 | 1020.2 |
| 20260505202939 | 70 | 187 | 4.0 | 7.0 | 0.00 | 0.00 | 0.00 | 66 | 1020.2 |
| 20260505202436 | 70 | 183 | 4.0 | 7.0 | 0.00 | 0.00 | 0.00 | 65 | 1020.5 |
| 20260505201932 | 70 | 208 | 10.0 | 11.0 | 0.00 | 0.00 | 0.00 | 64 | 1019.9 |
| 20260505201429 | 71 | 190 | 6.0 | 8.0 | 0.00 | 0.00 | 0.00 | 65 | 1020.5 |
| 20260505200927 | 71 | 180 | 7.0 | 11.0 | 0.00 | 0.00 | 0.00 | 64 | 1020.2 |
| 20260505200424 | 71 | 188 | 6.0 | 8.0 | 0.00 | 0.00 | 0.00 | 65 | 1020.5 |
| 20260505195920 | 71 | 172 | 5.0 | 7.0 | 0.00 | 0.00 | 0.00 | 65 | 1020.5 |
| 20260505195417 | 71 | 188 | 8.0 | 10.0 | 0.00 | 0.00 | 0.00 | 64 | 1020.5 |
| 20260505194914 | 71 | 158 | 7.0 | 16.0 | 0.00 | 0.00 | 0.00 | 65 | 1020.5 |
| 20260505194411 | 70 | 190 | 3.0 | 7.0 | 0.00 | 0.00 | 0.00 | 65 | 1020.2 |
| 20260505193906 | 71 | 199 | 6.0 | 8.0 | 0.00 | 0.00 | 0.00 | 65 | 1020.5 |
| 20260505193404 | 71 | 208 | 14.0 | 20.0 | 0.00 | 0.00 | 0.00 | 63 | 1020.5 |
| 20260505192902 | 71 | 202 | 1.0 | 7.0 | 0.00 | 0.00 | 0.00 | 64 | 1020.5 |
| 20260505192359 | 72 | 178 | 7.0 | 13.0 | 0.00 | 0.00 | 0.00 | 63 | 1020.5 |
| 20260505191857 | 72 | 187 | 8.0 | 14.0 | 0.00 | 0.00 | 0.00 | 63 | 1020.5 |
| 20260505191355 | 72 | 186 | 2.0 | 7.0 | 0.00 | 0.00 | 0.00 | 64 | 1020.9 |
| 20260505190852 | 72 | 196 | 5.0 | 7.0 | 0.00 | 0.00 | 0.00 | 64 | 1020.9 |
| 20260505190347 | 72 | 230 | 5.0 | 9.0 | 0.00 | 0.00 | 0.00 | 63 | 1020.9 |
| 20260505185843 | 72 | 196 | 2.0 | 9.0 | 0.00 | 0.00 | 0.00 | 63 | 1020.9 |
| 20260505185340 | 73 | 169 | 9.0 | 15.0 | 0.00 | 0.00 | 0.00 | 61 | 1020.9 |
| 20260505184836 | 72 | 177 | 5.0 | 10.0 | 0.00 | 0.00 | 0.00 | 63 | 1020.9 |
| 20260505184333 | 72 | 189 | 11.0 | 13.0 | 0.00 | 0.00 | 0.00 | 62 | 1020.9 |
| 20260505183830 | 72 | 187 | 7.0 | 9.0 | 0.00 | 0.00 | 0.00 | 63 | 1020.9 |
| 20260505183327 | 73 | 196 | 9.0 | 10.0 | 0.00 | 0.00 | 0.00 | 62 | 1021.2 |
| 20260505182824 | 73 | 201 | 0.0 | 0.0 | 0.00 | 0.00 | 0.00 | 60 | 1020.9 |
| 20260505182320 | 73 | 184 | 9.0 | 14.0 | 0.00 | 0.00 | 0.00 | 61 | 1020.9 |
| 20260505181817 | 74 | 205 | 1.0 | 6.0 | 0.00 | 0.00 | 0.00 | 62 | 1020.5 |
| 20260505181314 | 73 | 198 | 0.0 | 0.0 | 0.00 | 0.00 | 0.00 | 63 | 1020.9 |
| 20260505180811 | 74 | 206 | 0.0 | 0.0 | 0.00 | 0.00 | 0.00 | 61 | 1020.9 |
| 20260505180307 | 73 | 185 | 0.0 | 0.0 | 0.00 | 0.00 | 0.00 | 61 | 1020.9 |
| 20260505175804 | 73 | 169 | 0.0 | 1.0 | 0.00 | 0.00 | 0.00 | 65 | 1021.2 |
| 20260505175300 | 73 | 190 | 1.0 | 3.0 | 0.00 | 0.00 | 0.00 | 62 | 1021.2 |
| 20260505174757 | 73 | 199 | 2.0 | 5.0 | 0.00 | 0.00 | 0.00 | 60 | 1021.2 |
| 20260505174254 | 73 | 198 | 0.0 | 0.0 | 0.00 | 0.00 | 0.00 | 61 | 1021.6 |
| 20260505173750 | 73 | 231 | 4.0 | 7.0 | 0.00 | 0.00 | 0.00 | 61 | 1021.2 |
| 20260505173247 | 73 | 187 | 9.0 | 11.0 | 0.00 | 0.00 | 0.00 | 61 | 1021.2 |
| 20260505172744 | 72 | 207 | 3.0 | 6.0 | 0.00 | 0.00 | 0.00 | 62 | 1021.6 |